Date String (YYYY-MM-DD hh:mm:ss) UTC,Instrument flags,Ambient pressure (hPa),Sample flow (lpm),Bypass flow (lpm),Sample temperature (°C),Ambient temperature (°C),ASC tube jacket temperature (°C),LED temperature (°C),Box temperature (°C),Sample RH (%),Span deviation,Mass concentration (μg/m³),Mass concentration (μg/m³),Mass concentration (μg/m³)
DateTimeUTC,F1_M11,P_M11,Q1_M11,Q2_M11,T1_M11,T2_M11,T3_M11,T4_M11,T5_M11,U1_M11,ZSPAN_M11,X2_M11,X0_M11,X1_M11
2023-05-23 07:00:00,,0829.9,5.01,0.00,29.8,28.0,00.0,38.1,31.3,17.2,0003.6,0025.34,0036.75,0024.30
2023-05-23 07:01:00,,0829.9,5.01,0.00,29.8,28.0,00.0,38.1,31.3,17.1,0003.7,0025.18,0036.10,0024.15
2023-05-23 07:02:00,,0829.9,5.00,0.00,29.8,28.0,00.0,38.1,31.3,17.1,0003.6,0025.06,0036.11,0024.04
2023-05-23 07:03:00,,0829.8,5.00,0.00,29.7,28.0,00.0,38.1,31.3,17.1,0003.5,0024.98,0036.04,0023.95
2023-05-23 07:04:00,,0829.8,5.00,0.00,29.7,28.0,00.0,38.1,31.3,17.0,0003.6,0024.83,0036.03,0023.82
2023-05-23 07:05:00,,0829.8,4.98,0.00,29.7,28.0,00.0,38.1,31.3,17.0,0003.6,0024.66,0036.39,0023.68
2023-05-23 07:06:00,,0829.8,5.01,0.00,29.7,28.0,00.0,38.1,31.3,17.0,0003.5,0024.49,0036.12,0023.51
2023-05-23 07:07:00,,0829.8,5.01,0.00,29.7,28.0,00.0,38.1,31.3,17.0,0003.5,0024.32,0036.72,0023.31
2023-05-23 07:08:00,,0829.8,5.00,0.00,29.7,28.0,00.0,38.1,31.3,17.0,0003.7,0024.07,0036.25,0023.07
2023-05-23 07:09:00,,0829.8,4.98,0.00,29.7,28.0,00.0,38.1,31.3,17.0,0003.7,0023.82,0034.52,0022.82
2023-05-23 07:10:00,,0829.8,5.01,0.00,29.7,28.0,00.0,38.1,31.3,17.0,0003.6,0023.53,0033.89,0022.57
2023-05-23 07:11:00,,0829.8,5.01,0.00,29.7,28.0,00.0,38.1,31.3,17.0,0003.6,0023.32,0033.49,0022.38
2023-05-23 07:12:00,,0829.8,4.99,0.00,29.7,28.0,00.0,38.1,31.3,17.0,0003.5,0023.19,0033.16,0022.27
2023-05-23 07:13:00,,0829.8,4.99,0.00,29.7,28.0,00.0,38.1,31.3,16.9,0003.5,0023.05,0032.73,0022.14
2023-05-23 07:14:00,,0829.8,5.01,0.00,29.7,28.0,00.0,38.1,31.3,17.0,0003.6,0022.99,0032.65,0022.08
2023-05-23 07:15:00,,0829.8,5.00,0.00,29.7,28.0,00.0,38.1,31.3,17.0,0003.5,0022.96,0032.46,0022.03
2023-05-23 07:16:00,,0829.8,5.00,0.00,29.7,28.0,00.0,38.1,31.3,17.1,0003.5,0022.99,0031.83,0022.04
2023-05-23 07:17:00,,0829.8,4.99,0.00,29.7,28.0,00.0,38.1,31.3,17.1,0003.5,0022.97,0031.49,0022.01
2023-05-23 07:18:00,,0829.8,5.00,0.00,29.7,28.0,00.0,38.1,31.3,17.4,0003.5,0022.95,0030.80,0021.99
2023-05-23 07:19:00,,0829.8,5.00,0.00,29.7,28.0,00.0,38.1,31.3,17.3,0003.4,0022.91,0030.66,0021.98
2023-05-23 07:20:00,,0829.7,4.99,0.00,29.7,28.0,00.0,38.1,31.3,17.0,0003.4,0022.88,0030.63,0021.95
2023-05-23 07:21:00,,0829.7,5.00,0.00,29.7,28.0,00.0,38.1,31.3,17.0,0003.6,0022.86,0030.74,0021.91
2023-05-23 07:22:00,,0829.7,4.99,0.00,29.7,28.0,00.0,38.1,31.3,16.8,0003.5,0022.85,0030.84,0021.89
2023-05-23 07:23:00,,0829.7,4.99,0.00,29.7,28.0,00.0,38.1,31.3,16.7,0003.6,0022.80,0030.79,0021.83
2023-05-23 07:24:00,,0829.7,5.01,0.00,29.7,27.9,00.0,38.1,31.3,16.8,0003.5,0022.77,0030.84,0021.76
2023-05-23 07:25:00,,0829.7,5.01,0.00,29.7,27.9,00.0,38.1,31.2,16.8,0003.4,0022.72,0030.90,0021.66
2023-05-23 07:26:00,,0829.7,5.01,0.00,29.7,27.9,00.0,38.1,31.2,16.8,0003.4,0022.62,0030.87,0021.56
2023-05-23 07:27:00,,0829.7,4.99,0.00,29.7,27.9,00.0,38.1,31.2,16.8,0003.4,0022.45,0030.67,0021.39
2023-05-23 07:28:00,,0829.7,5.00,0.00,29.7,27.9,00.0,38.1,31.2,16.8,0003.4,0022.34,0030.47,0021.23
2023-05-23 07:29:00,,0829.7,5.00,0.00,29.7,27.9,00.0,38.1,31.2,16.9,0003.4,0022.23,0030.28,0021.15
2023-05-23 07:30:00,,0829.7,5.00,0.00,29.7,27.9,00.0,38.1,31.2,16.8,0003.3,0022.13,0030.20,0021.07
2023-05-23 07:31:00,,0829.7,5.01,0.00,29.7,27.9,00.0,38.1,31.2,16.6,0003.3,0022.03,0030.45,0020.95
2023-05-23 07:32:00,,0829.7,5.00,0.00,29.7,27.9,00.0,38.1,31.2,16.6,0003.3,0021.88,0030.25,0020.80
2023-05-23 07:33:00,,0829.7,5.00,0.00,29.7,27.9,00.0,38.1,31.2,16.5,0003.4,0021.69,0029.86,0020.62
2023-05-23 07:34:00,,0829.7,5.00,0.00,29.7,27.9,00.0,38.1,31.2,16.5,0003.4,0021.55,0029.75,0020.47
2023-05-23 07:35:00,,0829.7,5.00,0.00,29.7,27.9,00.0,38.1,31.2,16.6,0003.5,0021.47,0029.69,0020.39
2023-05-23 07:36:00,,0829.7,5.00,0.00,29.7,27.9,00.0,38.1,31.2,16.6,0003.5,0021.28,0029.36,0020.26
2023-05-23 07:37:00,,0829.7,5.00,0.00,29.7,27.9,00.0,38.1,31.2,16.5,0003.5,0021.10,0029.09,0020.09
2023-05-23 07:38:00,,0829.7,5.00,0.00,29.7,27.9,00.0,38.1,31.2,16.4,0003.5,0020.96,0028.95,0019.94
2023-05-23 07:39:00,,0829.7,5.00,0.00,29.7,27.9,00.0,38.1,31.2,16.3,0003.5,0020.78,0028.70,0019.78
2023-05-23 07:40:00,,0829.7,5.00,0.00,29.6,27.9,00.0,38.0,31.2,16.3,0003.6,0020.56,0028.41,0019.59
2023-05-23 07:41:00,,0829.7,5.01,0.00,29.6,27.9,00.0,38.0,31.2,16.3,0003.6,0020.37,0028.21,0019.37
2023-05-23 07:42:00,,0829.7,5.01,0.00,29.6,27.9,00.0,38.0,31.2,16.3,0003.5,0020.19,0027.70,0019.18
2023-05-23 07:43:00,,0829.7,5.01,0.00,29.6,27.9,00.0,38.0,31.2,16.3,0003.5,0020.02,0027.70,0019.04
2023-05-23 07:44:00,,0829.7,5.00,0.00,29.6,27.9,00.0,38.0,31.2,16.2,0003.4,0019.88,0027.91,0018.93
2023-05-23 07:45:00,,0829.7,5.00,0.00,29.6,27.9,00.0,38.0,31.2,16.1,0003.3,0019.69,0027.61,0018.76
2023-05-23 07:46:00,,0829.7,5.00,0.00,29.6,27.9,00.0,38.0,31.2,16.0,0003.3,0019.49,0027.32,0018.56
2023-05-23 07:47:00,,0829.7,5.00,0.00,29.6,27.9,00.0,38.0,31.2,15.9,0003.4,0019.39,0027.32,0018.43
2023-05-23 07:48:00,,0829.7,5.00,0.00,29.6,27.9,00.0,38.0,31.2,15.8,0003.5,0019.28,0027.14,0018.30
2023-05-23 07:49:00,,0829.7,5.00,0.00,29.6,27.9,00.0,38.0,31.2,15.9,0003.7,0019.21,0027.07,0018.22
2023-05-23 07:50:00,,0829.7,4.99,0.00,29.6,27.9,00.0,38.0,31.2,16.0,0003.7,0019.12,0027.02,0018.15
2023-05-23 07:51:00,,0829.7,5.01,0.00,29.6,27.8,00.0,38.0,31.2,16.1,0003.7,0019.01,0026.94,0018.03
2023-05-23 07:52:00,,0829.7,5.00,0.00,29.6,27.8,00.0,38.0,31.2,16.2,0003.6,0018.93,0026.84,0017.96
2023-05-23 07:53:00,,0829.7,5.00,0.00,29.6,27.8,00.0,38.0,31.2,16.1,0003.6,0018.87,0026.80,0017.90
2023-05-23 07:54:00,,0829.7,5.00,0.00,29.6,27.8,00.0,38.0,31.2,16.0,0003.7,0018.77,0026.50,0017.81
2023-05-23 07:55:00,,0829.7,5.00,0.00,29.6,27.8,00.0,38.0,31.2,16.0,0003.7,0018.70,0026.11,0017.71
2023-05-23 07:56:00,,0829.7,5.00,0.00,29.6,27.8,00.0,38.0,31.2,15.9,0003.7,0018.66,0026.10,0017.66
2023-05-23 07:57:00,,0829.7,5.00,0.00,29.6,27.8,00.0,38.0,31.2,15.9,0003.7,0018.63,0026.64,0017.65
2023-05-23 07:58:00,,0829.6,5.00,0.00,29.6,27.8,00.0,38.0,31.1,15.9,0003.6,0018.56,0026.47,0017.61
2023-05-23 07:59:00,,0829.7,5.00,0.00,29.6,27.8,00.0,38.0,31.1,15.9,0003.6,0018.50,0026.74,0017.55
